Weather History for Milwaukee Timmerman, WI

Change the Weather History Date:

Monday, March 18, 2013

  Actual Average Record
Temperature  
Mean Temperature 26 °F -  
Max Temperature 33 °F 44 °F 78 °F (2012)
Min Temperature 19 °F 27 °F 7 °F (1959)
Degree Days  
Heating Degree Days 39    
Moisture  
Dew Point 23 °F    
Average Humidity 79    
Maximum Humidity 93    
Minimum Humidity 68    
Precipitation  
Precipitation 0.00 in - - ()
Sea Level Pressure  
Sea Level Pressure 29.79 in    
Wind  
Wind Speed 11 mph (SE)    
Max Wind Speed 25 mph    
Max Gust Speed 34 mph    
Visibility 8 miles    
Events Snow    
Averages and records for this station are not official NWS values.
T = Trace of Precipitation, MM = Missing Value Source: NWS Daily Summary

Daily Weather History Graph

Daily Weather History Graph

Search for Another Location

Airport:

Trip Planner

Search our weather history database for the weather conditions in past years. The results will help you decide how hot, cold, wet, or windy it might be!

Date:

Astronomy

Mar. 18, 2013 Rise Set
Actual Time 6:58 AM CDT 7:02 PM CDT
Civil Twilight 6:30 AM CDT 7:30 PM CDT
Nautical Twilight 5:57 AM CDT 8:03 PM CDT
Astronomical Twilight 5:23 AM CDT 8:37 PM CDT
Moon 10:48 AM CDT (3/18) 1:10 AM CDT (3/18)
Length of Visible Light 13h 00m
Length of Day
12h 03m
Waxing Crescent, 41% of the Moon is Illuminated
Mar 18
Waxing Crescent
Mar 19
First Quarter
Mar 27
Full
Apr 2
Last Quarter
Apr 10
New

Hourly Weather History & Observations

Time (CDT) Temp. Windchill Dew Point Humidity Pressure Visibility Wind Dir Wind Speed Gust Speed Precip Events Conditions
12:15 AM 30.2 °F 21.3 °F 21.2 °F 69% 30.03 in 10.0 mi ESE 10.4 mph 18.4 mph N/A   Scattered Clouds
12:35 AM 30.2 °F 21.3 °F 21.2 °F 69% 30.02 in 10.0 mi ESE 10.4 mph 16.1 mph N/A   Scattered Clouds
12:55 AM 30.2 °F 20.2 °F 21.2 °F 69% 30.01 in 10.0 mi ESE 12.7 mph 19.6 mph N/A   Clear
1:15 AM 30.2 °F 22.6 °F 21.2 °F 69% 30.00 in 10.0 mi ESE 8.1 mph 16.1 mph N/A   Scattered Clouds
1:35 AM 30.2 °F 21.3 °F 23.0 °F 75% 29.99 in 10.0 mi ESE 10.4 mph 16.1 mph N/A   Mostly Cloudy
1:55 AM 30.2 °F 21.9 °F 23.0 °F 75% 29.98 in 10.0 mi ESE 9.2 mph - N/A   Overcast
2:15 AM 30.2 °F 22.6 °F 23.0 °F 75% 29.97 in 10.0 mi ESE 8.1 mph - N/A   Overcast
2:35 AM 30.2 °F 19.8 °F 23.0 °F 75% 29.96 in 10.0 mi SE 13.8 mph 21.9 mph N/A   Overcast
2:55 AM 30.2 °F 23.4 °F 23.0 °F 75% 29.95 in 10.0 mi SE 6.9 mph 10.4 mph N/A   Overcast
3:15 AM 30.2 °F 21.3 °F 23.0 °F 75% 29.94 in 10.0 mi ESE 10.4 mph 18.4 mph N/A   Overcast
3:35 AM 30.2 °F 19.8 °F 23.0 °F 75% 29.93 in 10.0 mi ESE 13.8 mph - N/A   Overcast
3:55 AM 30.2 °F 21.3 °F 23.0 °F 75% 29.92 in 10.0 mi SE 10.4 mph 18.4 mph N/A   Overcast
4:15 AM 30.2 °F 23.4 °F 23.0 °F 75% 29.92 in 10.0 mi ESE 6.9 mph - N/A   Overcast
4:35 AM 30.2 °F 20.8 °F 24.8 °F 80% 29.89 in 10.0 mi ESE 11.5 mph 16.1 mph N/A   Overcast
4:55 AM 30.2 °F 21.9 °F 24.8 °F 80% 29.88 in 10.0 mi ESE 9.2 mph 17.3 mph N/A   Overcast
5:15 AM 30.2 °F 20.8 °F 24.8 °F 80% 29.87 in 10.0 mi ESE 11.5 mph 16.1 mph N/A   Overcast
5:35 AM 30.2 °F 21.9 °F 24.8 °F 80% 29.86 in 10.0 mi East 9.2 mph 16.1 mph N/A   Overcast
5:55 AM 30.2 °F 20.2 °F 24.8 °F 80% 29.86 in 10.0 mi ESE 12.7 mph 17.3 mph N/A   Overcast
6:15 AM 30.2 °F 20.8 °F 24.8 °F 80% 29.86 in 10.0 mi ESE 11.5 mph - N/A   Overcast
6:35 AM 30.2 °F 20.8 °F 24.8 °F 80% 29.84 in 10.0 mi East 11.5 mph 17.3 mph N/A   Overcast
6:45 AM 28.4 °F 19.7 °F 24.8 °F 86% 29.84 in 10.0 mi ESE 9.2 mph 17.3 mph N/A   Overcast
6:55 AM 30.2 °F 22.6 °F 24.8 °F 80% 29.83 in 10.0 mi ESE 8.1 mph - N/A   Overcast
7:45 AM 28.4 °F 18.5 °F 24.8 °F 86% 29.82 in 10.0 mi East 11.5 mph - N/A   Overcast
8:45 AM 28.4 °F 17.5 °F 24.8 °F 86% 29.78 in 1.5 mi ENE 13.8 mph - N/A Snow Light Snow
9:45 AM 28.4 °F 19.7 °F 26.6 °F 93% 29.75 in 0.8 mi East 9.2 mph - N/A Snow Light Snow
10:45 AM 28.4 °F 21.2 °F 26.6 °F 93% 29.71 in 1.5 mi East 6.9 mph - N/A   Overcast
11:45 AM 30.2 °F 22.6 °F 26.6 °F 86% 29.68 in 0.8 mi East 8.1 mph - N/A Snow Light Snow
12:45 PM 32.0 °F 25.6 °F 28.4 °F 87% 29.64 in 0.8 mi East 6.9 mph - N/A Snow Light Snow
1:45 PM 32.0 °F 26.4 °F 28.4 °F 87% 29.61 in 1.5 mi SSE 5.8 mph - N/A Snow Light Snow
2:45 PM 32.0 °F 27.5 °F 30.2 °F 93% 29.59 in 1.0 mi South 4.6 mph - N/A Snow Light Snow
3:45 PM 32.0 °F 25.6 °F 30.2 °F 93% 29.57 in 2.0 mi SSW 6.9 mph - N/A Snow Light Snow
4:45 PM 33.8 °F 25.3 °F 30.2 °F 87% 29.57 in 2.5 mi SW 11.5 mph - N/A Snow Light Snow
5:45 PM 32.0 °F 24.2 °F 30.2 °F 93% 29.57 in 3.0 mi WSW 9.2 mph 16.1 mph N/A Snow Light Snow
6:45 PM 32.0 °F 22.5 °F 28.4 °F 87% 29.57 in 5.0 mi WSW 12.7 mph 16.1 mph N/A   Overcast
7:45 PM 32.0 °F 20.1 °F 28.4 °F 87% 29.60 in 3.0 mi WSW 19.6 mph 28.8 mph N/A   Overcast
9:15 PM 26.6 °F 13.8 °F 19.4 °F 74% 29.64 in 10.0 mi West 17.3 mph 27.6 mph N/A   Overcast
9:35 PM 24.8 °F 10.3 °F 17.6 °F 74% 29.65 in 10.0 mi West 20.7 mph 29.9 mph N/A   Overcast
9:55 PM 24.8 °F 9.0 °F 17.6 °F 74% 29.66 in 10.0 mi West 25.3 mph 34.5 mph N/A   Overcast
10:15 PM 23.0 °F 8.3 °F 14.0 °F 68% 29.67 in 10.0 mi West 19.6 mph 32.2 mph N/A   Overcast
10:55 PM 21.2 °F 4.5 °F 12.2 °F 68% 29.68 in 10.0 mi West 24.2 mph 33.4 mph N/A   Overcast
11:15 PM 19.4 °F 5.0 °F 12.2 °F 74% 29.69 in 10.0 mi West 16.1 mph 31.1 mph N/A   Scattered Clouds
11:35 PM 19.4 °F 4.1 °F 12.2 °F 74% 29.69 in 10.0 mi West 18.4 mph 31.1 mph N/A   Mostly Cloudy
11:55 PM 19.4 °F 4.1 °F 10.4 °F 68% 29.69 in 10.0 mi West 18.4 mph 33.4 mph N/A   Mostly Cloudy